This demonstration page uses our WeatherBlox Daily Observations layout. Learn more.

38.89511, -77.03637

Hourly Observations for July 10, 2019

Temp ( °F °C ) Dew Point ( °F °C ) Humidity (%) Winds ( mph kmh ) Pressure ( in mb ) Visibility ( mi km ) Precip ( " mm )
12:52 am 00:52 Mostly Cloudy 75 23.9 67 19.4 76 76 SSW 7 11 30.06 1018 10 16.09344 0 0
1:52 am 01:52 Mostly Cloudy 74 23.3 67 19.4 79 79 S 7 11 30.06 1018 10 16.09344 0 0
2:52 am 02:52 Mostly Cloudy 73 22.8 67 19.4 81 81 SSW 6 9 30.06 1018 10 16.09344 0 0
3:52 am 03:52 Mostly Cloudy 73 22.8 67 19.4 81 81 S 3 6 30.06 1018 10 16.09344 0 0
4:52 am 04:52 Mostly Cloudy 72 22.2 67 19.4 84 84 SSW 5 7 30.06 1018 10 16.09344 0 0
5:52 am 05:52 Mostly Cloudy 72 22.2 68 20 87 87 SSW 3 6 30.06 1018 10 16.09344 0 0
6:52 am 06:52 Mostly Cloudy 72 22.2 67 19.4 84 84 S 6 9 30.06 1018 10 16.09344 0 0
7:52 am 07:52 Mostly Cloudy 75 23.9 65 18.3 71 71 SSW 7 11 30.09 1019 10 16.09344 0 0
8:52 am 08:52 Mostly Cloudy 77 25 66 18.9 69 69 S 8 13 30.09 1019 10 16.09344 0 0
9:52 am 09:52 Mostly Cloudy 79 26.1 66 18.9 65 65 S 10 17 30.06 1018 10 16.09344 0 0
10:52 am 10:52 Mostly Cloudy 82 27.8 67 19.4 60 60 S 12 19 30.06 1018 10 16.09344 0 0
11:52 am 11:52 Mostly Cloudy 83 28.3 65 18.3 55 55 S 12 19 30.06 1018 10 16.09344 0 0
12:52 pm 12:52 Cloudy 84 28.9 66 18.9 55 55 S 10 17 30.06 1018 10 16.09344 0 0
1:52 pm 13:52 Mostly Cloudy 86 30 67 19.4 53 53 S 13 20 30.03 1017 10 16.09344 0 0
2:52 pm 14:52 Mostly Cloudy 87 30.6 68 20 53 53 S 10 17 30.03 1017 10 16.09344 0 0
3:52 pm 15:52 Mostly Cloudy 85 29.4 68 20 57 57 SSE 13 20 30 1016 10 16.09344 0 0
4:52 pm 16:52 Mostly Cloudy 86 30 69 20.6 57 57 S 10 17 30 1016 10 16.09344 0 0
5:52 pm 17:52 Mostly Cloudy 86 30 69 20.6 57 57 S 10 17 29.97 1015 10 16.09344 0 0
6:52 pm 18:52 Partly Cloudy 85 29.4 69 20.6 59 59 S 8 13 29.97 1015 10 16.09344 0 0
7:52 pm 19:52 Partly Cloudy 83 28.3 70 21.1 65 65 S 10 17 29.97 1015 10 16.09344 0 0
8:52 pm 20:52 Partly Cloudy 81 27.2 66 18.9 61 61 SSE 10 17 29.97 1015 10 16.09344 0 0
9:52 pm 21:52 Partly Cloudy 79 26.1 64 17.8 60 60 S 8 13 29.97 1015 10 16.09344 0 0
10:52 pm 22:52 Partly Cloudy 77 25 63 17.2 62 62 S 8 13 29.97 1015 10 16.09344 0 0
11:52 pm 23:52 Mostly Cloudy 76 24.4 65 18.3 69 69 S 7 11 29.97 1015 10 16.09344 0 0

Powered by AerisWeather